| time (UTC) | temp F | wind direction | speed knots | gust knots | rain 1hr in | rain 24hr in | rain mn in | humidity % | barometer mb |
| 20260504191541 | 67 | 237 | 5.2 | 10.4 | 0.00 | 0.00 | 0.00 | 72 | 1006.5 |
| 20260504190039 | 65 | 219 | 3.5 | 7.0 | 0.00 | 0.00 | 0.00 | 77 | 1006.9 |
| 20260504184538 | 64 | 175 | 0.9 | 4.3 | 0.00 | 0.00 | 0.00 | 77 | 1006.8 |
| 20260504183041 | 64 | 244 | 2.6 | 5.2 | 0.00 | 0.00 | 0.00 | 74 | 1007.2 |
| 20260504181539 | 65 | 201 | 2.6 | 12.2 | 0.00 | 0.00 | 0.00 | 72 | 1007.0 |
| 20260504180045 | 66 | 224 | 5.2 | 10.4 | 0.00 | 0.00 | 0.00 | 69 | 1007.1 |
| 20260504174536 | 66 | 261 | 7.0 | 15.6 | 0.00 | 0.00 | 0.00 | 68 | 1007.1 |
| 20260504173035 | 66 | 243 | 7.0 | 17.4 | 0.00 | 0.00 | 0.00 | 68 | 1006.7 |
| 20260504171535 | 67 | 241 | 7.8 | 16.5 | 0.00 | 0.00 | 0.00 | 66 | 1006.6 |
| 20260504081516 | 52 | 162 | 3.5 | 7.8 | 0.00 | 0.00 | 0.00 | 70 | 1008.6 |
| 20260504044533 | 53 | 203 | 4.3 | 9.6 | 0.00 | 0.00 | 0.00 | 67 | 1010.7 |
| 20260504043028 | 53 | 208 | 2.6 | 8.7 | 0.00 | 0.00 | 0.00 | 67 | 1010.9 |
| 20260504041524 | 53 | 193 | 2.6 | 9.6 | 0.00 | 0.00 | 0.00 | 67 | 1010.9 |
| 20260504040037 | 52 | 198 | 2.6 | 7.0 | 0.00 | 0.00 | 0.00 | 68 | 1011.3 |
| 20260504034523 | 52 | 175 | 3.5 | 7.0 | 0.00 | 0.00 | 0.00 | 68 | 1011.3 |
| 20260504033022 | 52 | 192 | 1.7 | 6.1 | 0.00 | 0.00 | 0.00 | 68 | 1011.5 |
| 20260504031520 | 52 | 186 | 1.7 | 6.1 | 0.00 | 0.00 | 0.00 | 68 | 1011.6 |
| 20260504030019 | 52 | 185 | 0.9 | 5.2 | 0.00 | 0.00 | 0.00 | 69 | 1011.7 |
| 20260504024519 | 52 | 202 | 0.9 | 4.3 | 0.00 | 0.00 | 0.00 | 69 | 1011.8 |
| 20260504023018 | 52 | 187 | 1.7 | 4.3 | 0.00 | 0.00 | 0.00 | 69 | 1011.8 |
| 20260504021517 | 52 | 180 | 0.9 | 4.3 | 0.00 | 0.00 | 0.00 | 67 | 1011.7 |
| 20260504020016 | 53 | 166 | 1.7 | 6.1 | 0.00 | 0.00 | 0.00 | 67 | 1011.5 |
| 20260504014523 | 53 | 168 | 2.6 | 4.3 | 0.00 | 0.00 | 0.00 | 66 | 1011.5 |
| 20260504013017 | 54 | 177 | 1.7 | 7.0 | 0.00 | 0.00 | 0.00 | 65 | 1011.6 |
| 20260504011513 | 54 | 182 | 3.5 | 6.1 | 0.00 | 0.00 | 0.00 | 63 | 1011.6 |
| 20260504010011 | 54 | 183 | 3.5 | 6.1 | 0.00 | 0.00 | 0.00 | 64 | 1011.5 |
| 20260504004508 | 54 | 192 | 2.6 | 9.6 | 0.00 | 0.00 | 0.00 | 64 | 1011.1 |
| 20260504003009 | 55 | 191 | 2.6 | 12.2 | 0.00 | 0.00 | 0.00 | 64 | 1011.1 |
| 20260504001506 | 56 | 193 | 5.2 | 8.7 | 0.00 | 0.00 | 0.00 | 60 | 1011.6 |
| 20260504000004 | 57 | 201 | 3.5 | 8.7 | 0.00 | 0.00 | 0.00 | 55 | 1011.4 |
| 20260503234505 | 57 | 183 | 5.2 | 11.3 | 0.00 | 0.00 | 0.00 | 53 | 1011.6 |
| 20260503233001 | 58 | 170 | 4.3 | 14.8 | 0.00 | 0.00 | 0.00 | 51 | 1011.8 |
| 20260503231600 | 59 | 111 | 7.0 | 15.6 | 0.00 | 0.00 | 0.00 | 50 | 1011.5 |
| 20260503230103 | 59 | 177 | 7.0 | 13.0 | 0.00 | 0.00 | 0.00 | 48 | 1011.8 |
| 20260503224557 | 59 | 164 | 5.2 | 10.4 | 0.00 | 0.00 | 0.00 | 49 | 1012.0 |
| 20260503223055 | 59 | 192 | 6.1 | 14.8 | 0.00 | 0.00 | 0.00 | 48 | 1012.1 |
| 20260503221557 | 60 | 146 | 6.1 | 11.3 | 0.00 | 0.00 | 0.00 | 47 | 1012.4 |
| 20260503220053 | 61 | 271 | 7.8 | 16.5 | 0.00 | 0.00 | 0.00 | 45 | 1012.8 |
| 20260503214551 | 60 | 246 | 7.0 | 16.5 | 0.00 | 0.00 | 0.00 | 45 | 1012.9 |
| 20260503213051 | 61 | 244 | 7.0 | 19.1 | 0.00 | 0.00 | 0.00 | 43 | 1013.3 |
| 20260503211548 | 61 | 272 | 6.1 | 12.2 | 0.00 | 0.00 | 0.00 | 42 | 1013.4 |
| 20260503210044 | 61 | 235 | 4.3 | 18.2 | 0.00 | 0.00 | 0.00 | 44 | 1013.7 |
| 20260503204544 | 60 | 199 | 6.1 | 14.8 | 0.00 | 0.00 | 0.00 | 43 | 1013.8 |
| 20260503203043 | 60 | 207 | 5.2 | 21.7 | 0.00 | 0.00 | 0.00 | 43 | 1014.1 |
| 20260503201540 | 60 | 256 | 10.4 | 18.2 | 0.00 | 0.00 | 0.00 | 42 | 1014.5 |
| 20260503200039 | 60 | 243 | 7.8 | 18.2 | 0.00 | 0.00 | 0.00 | 42 | 1014.4 |
| 20260503194537 | 60 | 244 | 7.8 | 13.0 | 0.00 | 0.00 | 0.00 | 42 | 1014.5 |
| 20260503193040 | 59 | 216 | 8.7 | 13.0 | 0.00 | 0.00 | 0.00 | 43 | 1014.8 |